When you browse on this site, cookies collect data to enhance your experience and personalize the content and advertising you see.
Visit our Privacy Policy to learn more. By continuing to use the site, you agree to this use of cookies and data.
  • En España
  • Lista de países
  • Para 7 días
  • Temperatura del agua
  • El tiempo en el mapa
  • Informadores
  • user-avatar
    Iniciar sesión

    Tiempo cada hora Galdakao

    Hoy, 24 Febrero, Lunes

    Tiempo Temperatura Precipitaciones Viento Presión Humedad
    00:00 +10°C° 0 mm 1 mps 756 mmHg 63%
    01:00 +10°C° 0 mm 1 mps 755 mmHg 62%
    02:00 +10°C° 0 mm 1 mps 755 mmHg 61%
    03:00 +10°C° 0 mm 1 mps 754 mmHg 59%
    04:00 +10°C° 0 mm 1 mps 754 mmHg 60%
    05:00 +9°C° 0 mm 1 mps 754 mmHg 60%
    06:00 +9°C° 0 mm 1 mps 754 mmHg 60%
    07:00 +11°C° 0 mm 1 mps 753 mmHg 57%
    08:00 +13°C° 0 mm 1 mps 753 mmHg 55%
    09:00 +14°C° 0 mm 1 mps 753 mmHg 52%
    10:00 +18°C° 0 mm 1 mps 753 mmHg 46%
    11:00 +20°C° 0 mm 1 mps 752 mmHg 40%
    12:00 +23°C° 0 mm 1 mps 752 mmHg 34%
    13:00 +21°C° 0 mm 2 mps 752 mmHg 36%
    14:00 +20°C° 0 mm 2 mps 751 mmHg 39%
    15:00 +20°C° 0 mm 2 mps 750 mmHg 41%
    16:00 +17°C° 0 mm 2 mps 750 mmHg 53%
    17:00 +15°C° 0 mm 2 mps 750 mmHg 64%
    18:00 +13°C° 0 mm 2 mps 750 mmHg 75%
    19:00 +12°C° 0 mm 2 mps 750 mmHg 80%
    20:00 +11°C° 0 mm 1 mps 750 mmHg 84%
    21:00 +10°C° 0 mm 1 mps 750 mmHg 88%
    22:00 +10°C° 0 mm 1 mps 750 mmHg 88%
    23:00 +10°C° 0 mm 1 mps 749 mmHg 88%

    Mañana, 25 Febrero, Martes

    Tiempo Temperatura Precipitaciones Viento Presión Humedad
    00:00 +9°C° 0 mm 1 mps 749 mmHg 88%
    01:00 +10°C° 0 mm 1 mps 748 mmHg 85%
    02:00 +10°C° 0 mm 1 mps 748 mmHg 83%
    03:00 +10°C° 0 mm 1 mps 747 mmHg 81%
    04:00 +10°C° 0 mm 1 mps 747 mmHg 82%
    05:00 +9°C° 0 mm 1 mps 747 mmHg 84%
    06:00 +9°C° 0 mm 1 mps 747 mmHg 86%
    07:00 +9°C° 0 mm 2 mps 747 mmHg 83%
    08:00 +10°C° 0 mm 2 mps 747 mmHg 80%
    09:00 +12°C° 0 mm 2 mps 747 mmHg 77%
    10:00 +12°C° 0.3 mm 2 mps 747 mmHg 78%
    11:00 +12°C° 0.3 mm 2 mps 747 mmHg 78%
    12:00 +13°C° 0.3 mm 2 mps 747 mmHg 79%
    13:00 +12°C° 0.2 mm 3 mps 747 mmHg 81%
    14:00 +12°C° 0.2 mm 4 mps 747 mmHg 83%
    15:00 +10°C° 0.2 mm 5 mps 747 mmHg 85%
    16:00 +10°C° 0.2 mm 5 mps 747 mmHg 86%
    17:00 +10°C° 0.2 mm 4 mps 747 mmHg 87%
    18:00 +8°C° 0.2 mm 4 mps 747 mmHg 89%
    19:00 +8°C° 0.1 mm 4 mps 748 mmHg 89%
    20:00 +7°C° 0.1 mm 4 mps 748 mmHg 88%
    21:00 +7°C° 0.1 mm 4 mps 748 mmHg 88%
    22:00 +7°C° 0.1 mm 5 mps 748 mmHg 87%
    23:00 +7°C° 0.1 mm 5 mps 748 mmHg 86%

    Pasado mañana, 26 Febrero, Miércoles

    Tiempo Temperatura Precipitaciones Viento Presión Humedad
    00:00 +6°C° 0.1 mm 5 mps 748 mmHg 85%
    01:00 +6°C° 0.2 mm 5 mps 748 mmHg 84%
    02:00 +7°C° 0.2 mm 5 mps 748 mmHg 83%
    03:00 +7°C° 0.2 mm 5 mps 748 mmHg 82%
    04:00 +7°C° 0.3 mm 5 mps 748 mmHg 84%
    05:00 +7°C° 0.3 mm 5 mps 748 mmHg 86%
    06:00 +6°C° 0.3 mm 5 mps 748 mmHg 88%
    07:00 +6°C° 0.3 mm 5 mps 749 mmHg 86%
    08:00 +5°C° 0.3 mm 6 mps 749 mmHg 85%
    09:00 +5°C° 0.3 mm 6 mps 750 mmHg 83%
    10:00 +7°C° 0.2 mm 5 mps 750 mmHg 82%
    11:00 +7°C° 0.2 mm 5 mps 750 mmHg 81%
    12:00 +7°C° 0.2 mm 5 mps 750 mmHg 79%
    13:00 +7°C° 0.2 mm 5 mps 750 mmHg 80%
    14:00 +7°C° 0.2 mm 5 mps 750 mmHg 81%
    15:00 +7°C° 0.2 mm 4 mps 750 mmHg 81%
    16:00 +6°C° 0.1 mm 4 mps 750 mmHg 83%
    17:00 +6°C° 0.1 mm 4 mps 750 mmHg 85%
    18:00 +7°C° 0.1 mm 3 mps 750 mmHg 87%
    19:00 +5°C° 0.1 mm 3 mps 750 mmHg 88%
    20:00 +6°C° 0.1 mm 2 mps 751 mmHg 89%
    21:00 +6°C° 0.1 mm 2 mps 751 mmHg 90%
    22:00 +6°C° 0 mm 2 mps 751 mmHg 90%
    23:00 +6°C° 0 mm 2 mps 750 mmHg 90%

    27 Febrero, Jueves

    Tiempo Temperatura Precipitaciones Viento Presión Humedad
    00:00 +5°C° 0 mm 2 mps 750 mmHg 90%
    01:00 +5°C° 0 mm 2 mps 750 mmHg 90%
    02:00 +5°C° 0 mm 2 mps 749 mmHg 91%
    03:00 +4°C° 0 mm 2 mps 749 mmHg 91%
    04:00 +3°C° 0 mm 3 mps 749 mmHg 90%
    05:00 +3°C° 0 mm 3 mps 748 mmHg 89%
    06:00 +3°C° 0 mm 3 mps 748 mmHg 88%
    07:00 +4°C° 0 mm 3 mps 748 mmHg 84%
    08:00 +7°C° 0 mm 3 mps 748 mmHg 80%
    09:00 +7°C° 0 mm 4 mps 748 mmHg 75%
    10:00 +10°C° 0 mm 3 mps 748 mmHg 69%
    11:00 +11°C° 0 mm 3 mps 748 mmHg 62%
    12:00 +13°C° 0 mm 3 mps 748 mmHg 56%
    13:00 +14°C° 0 mm 3 mps 747 mmHg 51%
    14:00 +17°C° 0 mm 3 mps 747 mmHg 47%
    15:00 +18°C° 0 mm 3 mps 747 mmHg 42%
    16:00 +16°C° 0 mm 2 mps 747 mmHg 50%
    17:00 +14°C° 0 mm 2 mps 747 mmHg 59%
    18:00 +12°C° 0 mm 1 mps 747 mmHg 67%
    19:00 +12°C° 0 mm 1 mps 747 mmHg 69%
    20:00 +10°C° 0 mm 2 mps 748 mmHg 71%
    21:00 +9°C° 0 mm 2 mps 748 mmHg 73%
    22:00 +9°C° 0 mm 2 mps 748 mmHg 73%
    23:00 +8°C° 0 mm 2 mps 748 mmHg 74%

    28 Febrero, Viernes

    Tiempo Temperatura Precipitaciones Viento Presión Humedad
    00:00 +8°C° 0 mm 2 mps 748 mmHg 75%
    01:00 +8°C° 0 mm 2 mps 748 mmHg 74%
    02:00 +8°C° 0 mm 2 mps 748 mmHg 74%
    03:00 +8°C° 0 mm 2 mps 747 mmHg 74%
    04:00 +8°C° 0 mm 2 mps 747 mmHg 74%
    05:00 +8°C° 0 mm 2 mps 747 mmHg 74%
    06:00 +8°C° 0 mm 2 mps 747 mmHg 74%
    07:00 +9°C° 0 mm 2 mps 747 mmHg 72%
    08:00 +10°C° 0 mm 2 mps 746 mmHg 69%
    09:00 +12°C° 0 mm 2 mps 746 mmHg 67%
    10:00 +14°C° 0 mm 2 mps 746 mmHg 58%
    11:00 +16°C° 0 mm 2 mps 745 mmHg 50%
    12:00 +18°C° 0 mm 3 mps 744 mmHg 42%
    13:00 +18°C° 0 mm 3 mps 744 mmHg 40%
    14:00 +19°C° 0 mm 3 mps 743 mmHg 39%
    15:00 +19°C° 0 mm 3 mps 743 mmHg 37%
    16:00 +17°C° 0 mm 3 mps 743 mmHg 44%
    17:00 +16°C° 0 mm 2 mps 743 mmHg 50%
    18:00 +14°C° 0 mm 1 mps 743 mmHg 57%
    19:00 +13°C° 0 mm 2 mps 743 mmHg 58%
    20:00 +13°C° 0 mm 2 mps 743 mmHg 58%
    21:00 +12°C° 0 mm 2 mps 743 mmHg 59%
    22:00 +12°C° 0 mm 2 mps 743 mmHg 60%
    23:00 +10°C° 0 mm 2 mps 743 mmHg 60%

    29 Febrero, Sábado

    Tiempo Temperatura Precipitaciones Viento Presión Humedad
    00:00 +10°C° 0 mm 2 mps 744 mmHg 61%
    01:00 +10°C° 0 mm 2 mps 744 mmHg 64%
    02:00 +9°C° 0 mm 2 mps 744 mmHg 66%
    03:00 +9°C° 0 mm 2 mps 744 mmHg 69%
    04:00 +9°C° 0.2 mm 3 mps 744 mmHg 73%
    05:00 +9°C° 0.2 mm 3 mps 744 mmHg 76%
    06:00 +9°C° 0.2 mm 3 mps 744 mmHg 79%
    07:00 +9°C° 0.3 mm 2 mps 744 mmHg 78%
    08:00 +10°C° 0.3 mm 2 mps 744 mmHg 77%
    09:00 +12°C° 0.3 mm 2 mps 744 mmHg 76%
    10:00 +13°C° 0 mm 2 mps 743 mmHg 70%
    11:00 +15°C° 0 mm 2 mps 743 mmHg 65%
    12:00 +16°C° 0 mm 3 mps 743 mmHg 60%
    13:00 +17°C° 0 mm 3 mps 742 mmHg 57%
    14:00 +17°C° 0 mm 3 mps 741 mmHg 55%
    15:00 +18°C° 0 mm 3 mps 740 mmHg 52%
    16:00 +17°C° 0 mm 4 mps 739 mmHg 53%
    17:00 +17°C° 0 mm 4 mps 739 mmHg 55%
    18:00 +15°C° 0 mm 4 mps 738 mmHg 56%
    19:00 +15°C° 0.1 mm 4 mps 738 mmHg 62%
    20:00 +14°C° 0.1 mm 4 mps 738 mmHg 67%
    21:00 +14°C° 0.1 mm 3 mps 738 mmHg 73%
    22:00 +14°C° 0.3 mm 4 mps 737 mmHg 75%
    23:00 +13°C° 0.3 mm 4 mps 737 mmHg 78%
    Mostrar más